Lid_Strength_Index
-0 1 2 3 10 11 13 11 8 8 8 6 5 6 7 6 8 12 3 1 0 0 -0 -1 -1 -1 -1 -1 -1 -1 -1 -1 -1 -1 -1 -1 -2 -1 -2 -2 -2 -2 -2 -2 -2 -2 -2 -2 -2
2 2 2 6 12 15 13 8 9 8 6 5 5 5 6 8 4 4 3 0 -0 -0 0 -0 -2 -1 -1 -2 -2 -2 -1 -1 -1 -1 -1 -1 -1 -1 -1 -1 -1 -1 -2 -2 -2 -1 -1 -2 -2
2 2 6 10 13 15 13 8 8 7 5 5 6 5 5 6 3 3 1 0 -0 0 -0 -0 -1 -1 -2 -2 -2 -2 -1 -1 -1 -1 -1 -1 -1 -1 -1 -1 -1 -1 -1 -1 -1 -1 -1 -2 -2
2 4 5 12 14 10 9 7 6 7 6 5 5 7 4 2 3 2 0 -0 0 0 -0 -1 -1 -1 -2 -2 -2 -2 -1 -1 -1 -2 -1 -1 -1 -1 -1 -1 -1 -1 -2 -1 -1 -1 -1 -1 -2
4 6 11 12 12 9 7 7 7 8 7 6 5 7 6 3 1 1 1 0 1 0 0 -0 -1 -2 -2 -2 -2 -2 -2 -1 -1 -1 -1 -1 -1 -1 -1 -1 -1 -1 -0 -0 -1 -1 -1 -1 -1
7 7 12 12 10 8 8 7 7 7 6 6 6 7 6 2 2 1 0 0 -0 0 -0 -0 -1 -2 -2 -2 -2 -2 -2 -2 -2 -1 -1 -1 -1 -1 -1 -1 -1 -1 -0 -0 -1 -1 -1 -2 -2
8 9 12 10 10 8 8 7 8 7 7 7 5 8 5 3 2 1 1 0 0 -0 -0 0 -0 -1 -2 -2 -2 -2 -1 -1 -0 -0 -0 -0 -1 -1 -1 -1 -1 -1 -0 -1 -1 -2 -2 -2 -2
6 8 11 10 10 10 7 7 7 6 7 3 4 8 8 4 2 1 1 1 1 0 -0 0 0 0 1 0 -2 -2 -1 -1 0 0 -0 -0 -0 -1 -1 -2 -2 -1 -1 -1 -2 -2 -2 -3 -3
5 10 11 10 9 9 8 7 6 5 6 6 4 5 3 3 3 5 3 2 1 1 1 0 1 1 1 0 -0 -2 -1 -1 -0 0 -0 2 2 3 1 -1 -2 -2 -1 -2 -2 -3 -3 -3 -1
7 11 11 8 7 8 7 6 6 6 7 6 5 3 3 3 5 6 4 5 4 2 1 1 1 2 2 1 2 1 1 2 2 3 3 4 4 4 1 -1 -2 -1 -2 -2 -1 -2 -1 0 3
8 10 9 7 6 7 7 7 6 7 8 6 6 5 4 4 5 6 6 6 5 4 1 1 1 2 2 2 2 2 2 2 3 4 4 4 5 4 3 4 3 3 1 3 2 2 3 3 3
9 7 6 6 6 7 7 5 6 6 6 4 4 4 4 4 4 5 5 6 7 5 4 3 1 2 2 2 2 3 3 2 2 4 4 4 4 3 2 3 4 4 3 3 3 3 2 2 2
7 7 6 5 6 6 5 6 6 6 4 4 4 4 4 4 4 5 6 6 6 6 4 3 3 3 2 3 3 3 2 1 2 3 2 3 3 3 2 2 3 3 3 2 3 3 2 2 2
6 7 7 6 6 6 7 7 6 6 4 4 4 5 4 4 4 6 7 7 7 5 4 2 2 3 2 3 3 3 2 1 2 2 1 1 2 2 2 2 2 3 2 2 3 3 2 2 2
6 7 7 6 6 7 6 8 8 5 4 5 5 5 5 5 5 6 6 6 6 5 4 4 3 3 4 4 3 4 2 1 2 2 2 1 2 2 2 2 3 2 2 2 2 2 2 2 2
8 9 11 7 6 6 7 11 7 5 6 6 5 5 5 5 5 6 6 6 6 5 5 5 3 4 4 4 4 4 2 2 1 1 2 1 1 2 2 2 3 2 2 3 3 3 2 2 3
10 12 12 9 6 7 8 11 8 5 6 6 6 5 5 4 5 6 5 5 5 5 5 5 4 4 5 5 4 4 2 3 2 1 1 1 1 1 2 1 2 2 2 3 3 3 3 3 3
11 12 12 11 9 8 10 10 8 6 6 7 6 6 5 5 4 5 5 5 5 5 5 5 5 5 4 4 4 3 2 2 2 2 2 1 1 1 2 1 1 2 2 3 3 3 3 3 3
8 10 11 10 8 10 10 10 9 7 7 7 7 6 6 5 4 4 4 4 5 5 5 5 5 5 4 5 6 4 3 3 2 1 1 1 2 1 2 2 2 3 2 2 3 3 3 3 3
8 10 12 10 8 10 10 10 8 8 7 7 7 6 6 5 4 3 3 4 4 5 5 5 5 4 4 5 5 2 3 2 2 2 2 2 1 2 2 2 2 3 2 2 3 4 4 3 3
10 11 10 11 9 9 10 12 10 8 7 6 6 5 5 5 5 4 4 4 4 4 5 5 5 4 4 4 3 3 3 2 3 3 2 2 1 1 1 2 2 3 3 3 3 4 4 5 4
12 8 8 9 11 15 10 17 12 10 9 7 7 6 6 5 5 4 4 5 4 4 4 4 5 4 4 4 3 3 3 4 3 3 2 2 1 1 1 2 2 3 3 3 3 2 3 4 4
10 7 9 10 12 12 12 15 13 10 11 9 7 6 5 6 5 5 4 3 4 3 3 3 4 4 3 3 2 3 4 3 3 3 3 3 2 2 1 1 2 2 3 3 2 3 3 4 4
7 8 10 10 12 16 13 14 15 13 11 9 7 6 5 5 5 4 4 3 4 3 3 3 4 3 2 3 2 2 3 3 3 3 3 3 3 2 2 2 2 3 2 2 3 3 3 3 4
9 12 15 16 16 18 12 14 12 10 8 8 7 7 5 5 5 5 4 4 4 4 4 3 2 2 2 2 2 2 2 3 3 3 3 3 3 3 2 3 2 2 2 2 2 3 3 3 3
10 11 14 18 18 17 12 16 12 8 7 7 6 6 5 6 5 5 4 4 4 4 4 3 2 2 2 2 2 2 2 2 2 2 3 3 4 2 2 2 2 2 2 2 2 2 3 3 3
10 12 10 13 14 16 16 12 10 8 8 8 7 6 6 5 6 5 4 4 3 3 3 3 2 2 2 2 2 2 2 2 2 2 2 3 2 2 2 2 2 2 2 1 2 3 2 3 3
9 8 12 13 18 20 16 15 14 11 10 9 8 7 6 6 5 5 4 4 3 3 3 3 2 2 2 2 2 2 2 2 2 2 2 2 2 2 2 2 2 2 1 1 1 3 3 3 3
10 11 12 12 14 18 20 16 10 10 9 9 7 6 6 6 5 5 4 3 3 3 3 3 2 2 2 3 4 3 2 2 2 3 2 2 2 2 2 2 1 2 4 4 5 5 5 4 3
9 11 11 14 16 15 15 16 8 8 8 7 7 6 6 6 5 4 4 4 3 3 3 3 3 2 2 2 5 3 2 1 2 3 2 2 2 2 2 1 2 5 6 6 7 7 6 5 5